^^
Station Historical Data
Daily Summary for January 31, 2018 Units:  English    Metric   Both
« Previous Day
Next Day »
Daily Weekly Monthly Yearly Custom
  High: Low: Average:
Temperature: TemperatureF °F 59.4 °F 79.1 °F
Dew Point: DewpointF °F 32.5 °F 37.9 °F
Humidity: Humidity% 11% 25%
Wind Speed: WindSpeedMPHmph 0.0mph 1.5mph
Wind Gust: WindSpeedGustMPHmph - -
Wind- - SW
Pressure: PressureIn in 29.45 in -
Precipitation: 0.00 in    
Historical Graphs
 
 
Tabular Data for January 31, 2018
Time Temperature Dew Point Pressure Wind Wind Speed Wind Gust Humidity Rainfall Rate (Hourly) solar Conditions
TemperatureF °F DewpointF °F PressureIn in Calm     Humidity% HourlyPrecipIn in SolarRadiationWatts/m^2 W/m2 Conditions
00:02 73.8 °F 34.7 °F 29.63 in Calm   1.0 mph 24% 0.00 in 0.0 W/m2
00:08 73.6 °F 34.5 °F 29.63 in Calm   2.0 mph 24% 0.00 in 0.0 W/m2
00:13 73.2 °F 34.3 °F 29.62 in Calm     24% 0.00 in 0.0 W/m2
00:18 73.0 °F 34.2 °F 29.62 in Calm     24% 0.00 in 0.0 W/m2
00:24 72.9 °F 35.1 °F 29.62 in Calm     25% 0.00 in 0.0 W/m2
00:29 72.5 °F 34.7 °F 29.62 in Calm   1.0 mph 25% 0.00 in 0.0 W/m2
00:34 72.1 °F 34.3 °F 29.63 in NNW 2.9 mph 4.0 mph 25% 0.00 in 0.0 W/m2
00:40 72.0 °F 35.2 °F 29.63 in West 0.9 mph 8.0 mph 26% 0.00 in 0.0 W/m2
00:45 72.0 °F 35.2 °F 29.63 in North 2.0 mph 7.0 mph 26% 0.00 in 0.0 W/m2
00:50 72.1 °F 34.3 °F 29.62 in NNE 2.9 mph 6.0 mph 25% 0.00 in 0.0 W/m2
00:55 72.3 °F 34.5 °F 29.62 in Calm     25% 0.00 in 0.0 W/m2
01:00 72.3 °F 34.5 °F 29.62 in Calm     25% 0.00 in 0.0 W/m2
01:06 72.1 °F 35.4 °F 29.63 in Calm   1.0 mph 26% 0.00 in 0.0 W/m2
01:11 72.0 °F 35.2 °F 29.63 in NNW 2.0 mph 3.0 mph 26% 0.00 in 0.0 W/m2
01:16 71.8 °F 35.1 °F 29.63 in NNE 2.9 mph 4.0 mph 26% 0.00 in 0.0 W/m2
01:22 71.8 °F 35.1 °F 29.62 in Calm     26% 0.00 in 0.0 W/m2
01:27 71.6 °F 34.9 °F 29.62 in SSE 0.9 mph 2.0 mph 26% 0.00 in 0.0 W/m2
01:32 71.4 °F 34.7 °F 29.62 in Calm   4.0 mph 26% 0.00 in 0.0 W/m2
01:37 71.2 °F 34.5 °F 29.63 in Calm     26% 0.00 in 0.0 W/m2
01:42 71.1 °F 35.4 °F 29.63 in SE 0.9 mph 1.0 mph 27% 0.00 in 0.0 W/m2
01:47 70.9 °F 35.2 °F 29.62 in Calm     27% 0.00 in 0.0 W/m2
01:52 70.5 °F 35.8 °F 29.62 in Calm     28% 0.00 in 0.0 W/m2
01:57 70.3 °F 35.6 °F 29.62 in Calm   1.0 mph 28% 0.00 in 0.0 W/m2
02:03 70.2 °F 36.5 °F 29.62 in Calm     29% 0.00 in 0.0 W/m2
02:08 70.0 °F 37.0 °F 29.61 in Calm   1.0 mph 30% 0.00 in 0.0 W/m2
02:13 69.6 °F 36.9 °F 29.61 in Calm     30% 0.00 in 0.0 W/m2
02:18 69.4 °F 37.4 °F 29.61 in Calm     31% 0.00 in 0.0 W/m2
02:23 69.3 °F 37.4 °F 29.61 in Calm     31% 0.00 in 0.0 W/m2
02:28 69.1 °F 37.9 °F 29.61 in Calm     32% 0.00 in 0.0 W/m2
02:33 68.7 °F 37.6 °F 29.61 in Calm     32% 0.00 in 0.0 W/m2
02:38 68.5 °F 37.6 °F 29.61 in Calm     32% 0.00 in 0.0 W/m2
02:44 68.4 °F 37.4 °F 29.61 in Calm     32% 0.00 in 0.0 W/m2
02:49 68.2 °F 37.2 °F 29.61 in Calm     32% 0.00 in 0.0 W/m2
02:54 67.8 °F 36.9 °F 29.61 in Calm     32% 0.00 in 0.0 W/m2
02:59 67.5 °F 37.4 °F 29.61 in Calm     33% 0.00 in 0.0 W/m2
03:04 67.3 °F 37.9 °F 29.61 in Calm     34% 0.00 in 0.0 W/m2
03:09 66.9 °F 37.6 °F 29.61 in Calm     34% 0.00 in 0.0 W/m2
03:15 66.6 °F 36.5 °F 29.60 in Calm     33% 0.00 in 0.0 W/m2
03:21 66.4 °F 37.2 °F 29.60 in Calm     34% 0.00 in 0.0 W/m2
03:26 66.0 °F 36.9 °F 29.60 in Calm     34% 0.00 in 0.0 W/m2
03:31 65.7 °F 36.5 °F 29.60 in SE 0.9 mph 1.0 mph 34% 0.00 in 0.0 W/m2
03:36 65.3 °F 36.9 °F 29.59 in Calm   1.0 mph 35% 0.00 in 0.0 W/m2
03:41 65.1 °F 36.9 °F 29.59 in Calm     35% 0.00 in 0.0 W/m2
03:46 64.9 °F 37.4 °F 29.59 in Calm     36% 0.00 in 0.0 W/m2
03:51 64.8 °F 37.2 °F 29.59 in Calm   1.0 mph 36% 0.00 in 0.0 W/m2
03:57 64.6 °F 37.0 °F 29.59 in Calm     36% 0.00 in 0.0 W/m2
04:02 64.2 °F 37.4 °F 29.59 in Calm     37% 0.00 in 0.0 W/m2
04:07 64.0 °F 37.2 °F 29.59 in Calm     37% 0.00 in 0.0 W/m2
04:13 63.9 °F 37.8 °F 29.59 in Calm     38% 0.00 in 0.0 W/m2
04:18 63.7 °F 37.6 °F 29.59 in Calm     38% 0.00 in 0.0 W/m2
04:23 63.5 °F 38.1 °F 29.59 in Calm     39% 0.00 in 0.0 W/m2
04:28 63.1 °F 37.8 °F 29.59 in Calm     39% 0.00 in 0.0 W/m2
04:33 63.0 °F 38.3 °F 29.59 in Calm     40% 0.00 in 0.0 W/m2
04:39 62.6 °F 38.5 °F 29.59 in Calm     41% 0.00 in 0.0 W/m2
04:44 62.4 °F 38.5 °F 29.59 in Calm     41% 0.00 in 0.0 W/m2
04:49 62.2 °F 38.3 °F 29.59 in Calm   2.0 mph 41% 0.00 in 0.0 W/m2
04:55 62.1 °F 37.4 °F 29.59 in ENE 2.0 mph 3.0 mph 40% 0.00 in 0.0 W/m2
05:00 61.9 °F 36.7 °F 29.59 in Calm   2.0 mph 39% 0.00 in 0.0 W/m2
05:05 61.9 °F 37.2 °F 29.59 in Calm     40% 0.00 in 0.0 W/m2
05:11 61.5 °F 37.0 °F 29.59 in Calm   2.0 mph 40% 0.00 in 0.0 W/m2
05:16 61.5 °F 37.6 °F 29.59 in Calm     41% 0.00 in 0.0 W/m2
05:21 61.3 °F 38.1 °F 29.59 in East 2.0 mph 3.0 mph 42% 0.00 in 0.0 W/m2
05:27 61.2 °F 37.2 °F 29.59 in Calm   1.0 mph 41% 0.00 in 0.0 W/m2
05:32 61.2 °F 37.2 °F 29.59 in SE 2.0 mph 3.0 mph 41% 0.00 in 0.0 W/m2
05:37 61.2 °F 37.2 °F 29.59 in Calm   2.0 mph 41% 0.00 in 0.0 W/m2
05:42 61.2 °F 37.2 °F 29.59 in Calm     41% 0.00 in 0.0 W/m2
05:47 61.0 °F 37.8 °F 29.60 in Calm     42% 0.00 in 0.0 W/m2
05:53 60.8 °F 38.1 °F 29.60 in Calm   2.0 mph 43% 0.00 in 0.0 W/m2
05:58 60.6 °F 37.9 °F 29.59 in Calm     43% 0.00 in 0.0 W/m2
06:03 60.6 °F 37.9 °F 29.60 in Calm     43% 0.00 in 0.0 W/m2
06:09 60.4 °F 37.2 °F 29.59 in Calm     42% 0.00 in 0.0 W/m2
06:14 60.3 °F 37.0 °F 29.60 in Calm   2.0 mph 42% 0.00 in 0.0 W/m2
06:19 60.1 °F 37.6 °F 29.60 in Calm   3.0 mph 43% 0.00 in 0.0 W/m2
06:24 59.9 °F 37.4 °F 29.60 in Calm   1.0 mph 43% 0.00 in 0.0 W/m2
06:29 59.7 °F 37.2 °F 29.60 in Calm   1.0 mph 43% 0.00 in 0.0 W/m2
06:34 59.5 °F 37.0 °F 29.60 in Calm   4.0 mph 43% 0.00 in 5.0 W/m2
06:39 59.5 °F 37.0 °F 29.61 in Calm   1.0 mph 43% 0.00 in 7.0 W/m2
06:44 59.4 °F 36.9 °F 29.61 in East 0.9 mph 1.0 mph 43% 0.00 in 7.0 W/m2
06:50 59.4 °F 37.9 °F 29.61 in SE 2.0 mph 4.0 mph 45% 0.00 in 11.0 W/m2
06:55 59.4 °F 38.7 °F 29.61 in Calm     46% 0.00 in 14.0 W/m2
07:00 59.4 °F 39.2 °F 29.61 in Calm   4.0 mph 47% 0.00 in 14.0 W/m2
07:06 59.5 °F 39.4 °F 29.61 in Calm   1.0 mph 47% 0.00 in 18.0 W/m2
07:11 59.5 °F 39.4 °F 29.61 in Calm     47% 0.00 in 21.0 W/m2
07:16 59.5 °F 39.4 °F 29.61 in Calm   1.0 mph 47% 0.00 in 21.0 W/m2
07:22 59.9 °F 39.6 °F 29.61 in Calm   1.0 mph 47% 0.00 in 26.0 W/m2
07:27 60.1 °F 39.7 °F 29.61 in Calm     47% 0.00 in 28.0 W/m2
07:29 60.1 °F 40.3 °F 29.61 in Calm     48% 0.00 in 30.0 W/m2
07:34 60.4 °F 40.6 °F 29.61 in Calm     48% 0.00 in 32.0 W/m2
07:39 61.0 °F 41.2 °F 29.61 in Calm     48% 0.00 in 35.0 W/m2
07:44 61.3 °F 41.0 °F 29.61 in SE 0.9 mph 2.0 mph 47% 0.00 in 39.0 W/m2
07:49 62.2 °F 40.1 °F 29.61 in Calm     44% 0.00 in 56.0 W/m2
07:54 62.8 °F 40.5 °F 29.61 in Calm     44% 0.00 in 49.0 W/m2
07:59 63.1 °F 40.8 °F 29.61 in Calm     44% 0.00 in 63.0 W/m2
08:05 63.9 °F 40.3 °F 29.60 in Calm     42% 0.00 in 107.0 W/m2
08:10 64.6 °F 41.5 °F 29.60 in Calm     43% 0.00 in 308.0 W/m2
08:16 65.8 °F 38.8 °F 29.60 in SE 0.9 mph 7.0 mph 37% 0.00 in 378.0 W/m2
08:21 67.6 °F 39.0 °F 29.59 in ESE 2.9 mph 9.0 mph 35% 0.00 in 315.0 W/m2
08:26 69.6 °F 39.2 °F 29.60 in SSW 2.9 mph 7.0 mph 33% 0.00 in 417.0 W/m2
08:31 71.2 °F 39.9 °F 29.60 in SSW 0.9 mph 6.0 mph 32% 0.00 in 422.0 W/m2
08:36 72.5 °F 39.4 °F 29.60 in SW 4.9 mph 8.0 mph 30% 0.00 in 489.0 W/m2
08:41 73.4 °F 40.1 °F 29.60 in Calm   5.0 mph 30% 0.00 in 450.0 W/m2
08:46 74.3 °F 39.9 °F 29.59 in SW 0.9 mph 7.0 mph 29% 0.00 in 436.0 W/m2
08:51 75.0 °F 39.7 °F 29.59 in SSW 2.9 mph 6.0 mph 28% 0.00 in 515.0 W/m2
08:56 75.9 °F 39.6 °F 29.59 in ESE 0.9 mph 3.0 mph 27% 0.00 in 524.0 W/m2
09:01 76.6 °F 39.2 °F 29.59 in Calm   6.0 mph 26% 0.00 in 564.0 W/m2
09:06 77.0 °F 40.5 °F 29.59 in WSW 2.0 mph 9.0 mph 27% 0.00 in 584.0 W/m2
09:12 76.8 °F 40.3 °F 29.59 in SSW 4.9 mph 6.0 mph 27% 0.00 in 603.0 W/m2
09:18 77.4 °F 39.7 °F 29.59 in West 0.9 mph 6.0 mph 26% 0.00 in 624.0 W/m2
09:23 77.5 °F 39.9 °F 29.59 in SSW 4.9 mph 6.0 mph 26% 0.00 in 631.0 W/m2
09:28 78.1 °F 40.5 °F 29.59 in WSW 2.9 mph 4.0 mph 26% 0.00 in 657.0 W/m2
09:33 78.3 °F 40.6 °F 29.59 in WSW 4.9 mph 6.0 mph 26% 0.00 in 675.0 W/m2
09:38 78.6 °F 40.8 °F 29.59 in South 0.9 mph 6.0 mph 26% 0.00 in 693.0 W/m2
09:43 79.2 °F 41.4 °F 29.59 in SW 2.0 mph 5.0 mph 26% 0.00 in 714.0 W/m2
09:48 79.0 °F 40.1 °F 29.58 in WSW 2.9 mph 6.0 mph 25% 0.00 in 726.0 W/m2
09:53 79.3 °F 40.5 °F 29.58 in SSW 2.0 mph 6.0 mph 25% 0.00 in 745.0 W/m2
09:58 79.9 °F 41.0 °F 29.58 in SSW 0.9 mph 5.0 mph 25% 0.00 in 761.0 W/m2
10:03 80.4 °F 40.3 °F 29.58 in SW 6.0 mph 6.0 mph 24% 0.00 in 777.0 W/m2
10:08 81.0 °F 39.7 °F 29.58 in West 2.9 mph 7.0 mph 23% 0.00 in 793.0 W/m2
10:13 81.0 °F 39.7 °F 29.58 in Calm   5.0 mph 23% 0.00 in 807.0 W/m2
10:19 81.7 °F 40.3 °F 29.58 in SSE 0.9 mph 10.0 mph 23% 0.00 in 823.0 W/m2
10:24 82.0 °F 40.6 °F 29.58 in SW 2.0 mph 4.0 mph 23% 0.00 in 840.0 W/m2
10:30 82.6 °F 39.9 °F 29.58 in West 0.9 mph 5.0 mph 22% 0.00 in 863.0 W/m2
10:35 82.8 °F 40.1 °F 29.58 in Calm   5.0 mph 22% 0.00 in 879.0 W/m2
10:40 82.9 °F 40.1 °F 29.57 in WSW 2.0 mph 5.0 mph 22% 0.00 in 904.0 W/m2
10:45 83.8 °F 41.0 °F 29.57 in SE 0.9 mph 7.0 mph 22% 0.00 in 916.0 W/m2
10:50 84.2 °F 41.2 °F 29.57 in West 2.0 mph 5.0 mph 22% 0.00 in 448.0 W/m2
10:55 84.6 °F 40.3 °F 29.57 in North 0.9 mph 4.0 mph 21% 0.00 in 865.0 W/m2
11:01 85.6 °F 39.9 °F 29.57 in WSW 0.9 mph 5.0 mph 20% 0.00 in 933.0 W/m2
11:06 85.5 °F 39.7 °F 29.57 in WNW 4.9 mph 8.0 mph 20% 0.00 in 940.0 W/m2
11:11 85.3 °F 41.0 °F 29.57 in South 0.9 mph 7.0 mph 21% 0.00 in 868.0 W/m2
11:17 85.6 °F 39.9 °F 29.57 in West 2.0 mph 7.0 mph 20% 0.00 in 960.0 W/m2
11:22 86.2 °F 40.5 °F 29.57 in SE 0.9 mph 3.0 mph 20% 0.00 in 984.0 W/m2
11:27 87.1 °F 39.7 °F 29.56 in West 0.9 mph 5.0 mph 19% 0.00 in 995.0 W/m2
11:32 87.4 °F 40.1 °F 29.56 in South 8.9 mph 17.0 mph 19% 0.00 in 995.0 W/m2
11:37 87.4 °F 40.1 °F 29.56 in Calm   5.0 mph 19% 0.00 in 1005.0 W/m2
11:42 88.0 °F 40.6 °F 29.56 in SE 0.9 mph 4.0 mph 19% 0.00 in 1013.0 W/m2
11:47 88.2 °F 40.6 °F 29.56 in SSW 2.9 mph 7.0 mph 19% 0.00 in 1011.0 W/m2
11:52 88.5 °F 39.6 °F 29.56 in SW 4.0 mph 4.0 mph 18% 0.00 in 1013.0 W/m2
11:58 88.7 °F 39.7 °F 29.56 in SW 2.9 mph 8.0 mph 18% 0.00 in 1025.0 W/m2
12:03 88.5 °F 39.6 °F 29.56 in WSW 4.0 mph 7.0 mph 18% 0.00 in 1027.0 W/m2
12:09 88.5 °F 39.6 °F 29.56 in Calm   2.0 mph 18% 0.00 in 1025.0 W/m2
12:14 89.2 °F 40.3 °F 29.56 in West 4.9 mph 9.0 mph 18% 0.00 in 1039.0 W/m2
12:19 89.2 °F 40.3 °F 29.56 in SW 2.0 mph 9.0 mph 18% 0.00 in 1046.0 W/m2
12:24 89.2 °F 40.3 °F 29.56 in NNW 0.9 mph 4.0 mph 18% 0.00 in 1053.0 W/m2
12:29 89.8 °F 39.2 °F 29.55 in North 4.0 mph 6.0 mph 17% 0.00 in 1056.0 W/m2
12:34 90.5 °F 39.7 °F 29.55 in Calm   2.0 mph 17% 0.00 in 1069.0 W/m2
12:39 91.2 °F 38.8 °F 29.55 in WSW 4.0 mph 9.0 mph 16% 0.00 in 925.0 W/m2
12:45 91.8 °F 35.8 °F 29.55 in NNE 6.0 mph 7.0 mph 14% 0.00 in 1076.0 W/m2
12:50 91.9 °F 34.2 °F 29.55 in NNW 2.9 mph 4.0 mph 13% 0.00 in 1048.0 W/m2
12:55 92.5 °F 32.5 °F 29.55 in WSW 2.0 mph 6.0 mph 12% 0.00 in 1065.0 W/m2
13:00 92.8 °F 34.7 °F 29.55 in West 0.9 mph 5.0 mph 13% 0.00 in 1076.0 W/m2
13:05 93.0 °F 36.9 °F 29.54 in WSW 4.0 mph 4.0 mph 14% 0.00 in 1074.0 W/m2
13:10 92.7 °F 36.5 °F 29.54 in West 4.9 mph 5.0 mph 14% 0.00 in 1078.0 W/m2
13:15 92.8 °F 36.7 °F 29.54 in North 4.9 mph 8.0 mph 14% 0.00 in 1095.0 W/m2
13:20 93.4 °F 37.0 °F 29.54 in WNW 4.0 mph 6.0 mph 14% 0.00 in 1032.0 W/m2
13:25 93.6 °F 37.2 °F 29.54 in Calm   5.0 mph 14% 0.00 in 1088.0 W/m2
13:30 93.7 °F 37.4 °F 29.54 in West 2.0 mph 7.0 mph 14% 0.00 in 1067.0 W/m2
13:36 93.6 °F 35.4 °F 29.54 in NNW 2.0 mph 3.0 mph 13% 0.00 in 1076.0 W/m2
13:41 93.6 °F 35.4 °F 29.53 in WSW 2.9 mph 3.0 mph 13% 0.00 in 1048.0 W/m2
13:46 93.4 °F 35.2 °F 29.54 in SE 4.0 mph 9.0 mph 13% 0.00 in 1023.0 W/m2
13:51 93.4 °F 35.2 °F 29.54 in West 4.9 mph 6.0 mph 13% 0.00 in 1039.0 W/m2
13:56 93.4 °F 33.3 °F 29.53 in Calm   5.0 mph 12% 0.00 in 993.0 W/m2
14:01 93.6 °F 33.3 °F 29.53 in NNW 2.9 mph 3.0 mph 12% 0.00 in 949.0 W/m2
14:06 93.9 °F 33.6 °F 29.53 in West 0.9 mph 7.0 mph 12% 0.00 in 1053.0 W/m2
14:11 94.5 °F 34.0 °F 29.53 in NW 0.9 mph 7.0 mph 12% 0.00 in 1046.0 W/m2
14:16 94.8 °F 34.3 °F 29.52 in Calm   4.0 mph 12% 0.00 in 1025.0 W/m2
14:21 94.8 °F 34.3 °F 29.53 in North 4.0 mph 8.0 mph 12% 0.00 in 1018.0 W/m2
14:27 94.8 °F 34.3 °F 29.52 in NE 0.9 mph 3.0 mph 12% 0.00 in 1007.0 W/m2
14:32 93.9 °F 33.6 °F 29.52 in WNW 0.9 mph 6.0 mph 12% 0.00 in 998.0 W/m2
14:37 94.1 °F 35.8 °F 29.52 in NNW 2.0 mph 4.0 mph 13% 0.00 in 930.0 W/m2
14:42 94.6 °F 34.2 °F 29.51 in NNW 2.9 mph 6.0 mph 12% 0.00 in 940.0 W/m2
14:47 94.8 °F 34.3 °F 29.51 in SSW 0.9 mph 5.0 mph 12% 0.00 in 932.0 W/m2
14:52 94.6 °F 34.2 °F 29.51 in Calm   5.0 mph 12% 0.00 in 956.0 W/m2
14:57 95.0 °F 34.5 °F 29.51 in NW 0.9 mph 9.0 mph 12% 0.00 in 958.0 W/m2
15:02 95.5 °F 34.9 °F 29.51 in West 0.9 mph 2.0 mph 12% 0.00 in 944.0 W/m2
15:07 95.7 °F 35.1 °F 29.50 in South 0.9 mph 3.0 mph 12% 0.00 in 932.0 W/m2
15:13 96.3 °F 35.4 °F 29.49 in NNW 4.9 mph 9.0 mph 12% 0.00 in 919.0 W/m2
15:18 96.6 °F 35.8 °F 29.50 in West 4.9 mph 5.0 mph 12% 0.00 in 905.0 W/m2
15:23 96.4 °F 35.6 °F 29.49 in WSW 6.9 mph 9.0 mph 12% 0.00 in 911.0 W/m2
15:29 96.1 °F 35.2 °F 29.49 in Calm   4.0 mph 12% 0.00 in 912.0 W/m2
15:34 95.9 °F 35.1 °F 29.48 in WNW 0.9 mph 5.0 mph 12% 0.00 in 879.0 W/m2
15:39 95.7 °F 32.9 °F 29.49 in WNW 0.9 mph 3.0 mph 11% 0.00 in 877.0 W/m2
15:44 95.7 °F 35.1 °F 29.48 in NW 2.9 mph 6.0 mph 12% 0.00 in 854.0 W/m2
15:49 96.1 °F 35.2 °F 29.48 in North 2.0 mph 8.0 mph 12% 0.00 in 837.0 W/m2
15:54 96.4 °F 35.6 °F 29.48 in South 0.9 mph 6.0 mph 12% 0.00 in 826.0 W/m2
15:59 96.3 °F 35.4 °F 29.47 in North 4.0 mph 7.0 mph 12% 0.00 in 803.0 W/m2
16:04 96.4 °F 35.6 °F 29.47 in North 0.9 mph 5.0 mph 12% 0.00 in 780.0 W/m2
16:10 97.2 °F 36.1 °F 29.47 in West 2.9 mph 13.0 mph 12% 0.00 in 717.0 W/m2
16:15 97.3 °F 36.3 °F 29.47 in NNW 2.9 mph 13.0 mph 12% 0.00 in 731.0 W/m2
16:20 97.2 °F 36.1 °F 29.47 in West 2.0 mph 6.0 mph 12% 0.00 in 118.0 W/m2
16:25 96.3 °F 35.4 °F 29.46 in WNW 0.9 mph 2.0 mph 12% 0.00 in 429.0 W/m2
16:30 95.7 °F 37.0 °F 29.47 in Calm   7.0 mph 13% 0.00 in 728.0 W/m2
16:35 95.5 °F 36.9 °F 29.46 in WNW 0.9 mph 8.0 mph 13% 0.00 in 694.0 W/m2
16:40 95.7 °F 37.0 °F 29.46 in WNW 2.0 mph 7.0 mph 13% 0.00 in 663.0 W/m2
16:45 95.7 °F 37.0 °F 29.46 in North 6.9 mph 7.0 mph 13% 0.00 in 626.0 W/m2
16:50 95.5 °F 36.9 °F 29.46 in Calm   7.0 mph 13% 0.00 in 621.0 W/m2
16:56 95.5 °F 36.9 °F 29.45 in SSW 0.9 mph 7.0 mph 13% 0.00 in 60.0 W/m2
17:01 94.8 °F 36.3 °F 29.46 in NNW 2.0 mph 5.0 mph 13% 0.00 in 63.0 W/m2
17:06 94.1 °F 35.8 °F 29.45 in Calm   2.0 mph 13% 0.00 in 575.0 W/m2
17:11 93.9 °F 35.6 °F 29.45 in NNW 0.9 mph 7.0 mph 13% 0.00 in 559.0 W/m2
17:16 94.6 °F 36.1 °F 29.45 in Calm   3.0 mph 13% 0.00 in 540.0 W/m2
17:21 95.2 °F 36.7 °F 29.45 in WSW 2.0 mph 3.0 mph 13% 0.00 in 526.0 W/m2
17:26 95.5 °F 36.9 °F 29.45 in ENE 0.9 mph 6.0 mph 13% 0.00 in 501.0 W/m2
17:31 95.4 °F 36.7 °F 29.45 in NNW 2.0 mph 8.0 mph 13% 0.00 in 475.0 W/m2
17:36 95.0 °F 36.5 °F 29.45 in North 2.0 mph 8.0 mph 13% 0.00 in 459.0 W/m2
17:42 94.5 °F 36.0 °F 29.45 in Calm   7.0 mph 13% 0.00 in 443.0 W/m2
17:47 94.5 °F 36.0 °F 29.45 in WSW 4.0 mph 5.0 mph 13% 0.00 in 422.0 W/m2
17:53 94.6 °F 36.1 °F 29.45 in WSW 2.0 mph 11.0 mph 13% 0.00 in 403.0 W/m2
17:58 94.5 °F 36.0 °F 29.45 in South 8.1 mph 10.0 mph 13% 0.00 in 373.0 W/m2
18:03 94.5 °F 36.0 °F 29.45 in Calm   5.0 mph 13% 0.00 in 360.0 W/m2
18:08 94.8 °F 36.3 °F 29.45 in West 2.9 mph 3.0 mph 13% 0.00 in 343.0 W/m2
18:13 94.8 °F 36.3 °F 29.45 in WSW 4.0 mph 11.0 mph 13% 0.00 in 306.0 W/m2
18:18 94.1 °F 37.6 °F 29.46 in SW 0.9 mph 5.0 mph 14% 0.00 in 274.0 W/m2
18:23 93.6 °F 37.2 °F 29.46 in West 0.9 mph 7.0 mph 14% 0.00 in 232.0 W/m2
18:29 93.0 °F 36.9 °F 29.46 in SSW 6.0 mph 8.0 mph 14% 0.00 in 230.0 W/m2
18:34 92.8 °F 38.5 °F 29.46 in Calm   6.0 mph 15% 0.00 in 213.0 W/m2
18:39 92.8 °F 38.5 °F 29.47 in WSW 4.9 mph 8.0 mph 15% 0.00 in 204.0 W/m2
18:44 92.5 °F 38.1 °F 29.47 in West 6.0 mph 6.0 mph 15% 0.00 in 185.0 W/m2
18:49 92.3 °F 37.9 °F 29.47 in NW 4.0 mph 9.0 mph 15% 0.00 in 149.0 W/m2
18:54 91.9 °F 37.8 °F 29.47 in WSW 2.9 mph 7.0 mph 15% 0.00 in 91.0 W/m2
18:59 91.6 °F 37.4 °F 29.47 in West 6.9 mph 7.0 mph 15% 0.00 in 58.0 W/m2
19:04 91.2 °F 37.0 °F 29.47 in West 0.9 mph 8.0 mph 15% 0.00 in 54.0 W/m2
19:09 90.7 °F 38.3 °F 29.48 in SW 10.1 mph 13.0 mph 16% 0.00 in 46.0 W/m2
19:14 90.0 °F 37.8 °F 29.48 in WSW 2.0 mph 8.0 mph 16% 0.00 in 39.0 W/m2
19:20 89.4 °F 37.4 °F 29.49 in South 2.9 mph 5.0 mph 16% 0.00 in 39.0 W/m2
19:25 88.5 °F 39.6 °F 29.50 in South 4.0 mph 13.0 mph 18% 0.00 in 26.0 W/m2
19:30 87.4 °F 40.1 °F 29.49 in SSE 0.9 mph 11.0 mph 19% 0.00 in 18.0 W/m2
19:35 86.5 °F 40.6 °F 29.50 in SW 4.9 mph 10.0 mph 20% 0.00 in 11.0 W/m2
19:40 85.6 °F 39.9 °F 29.49 in SW 2.9 mph 11.0 mph 20% 0.00 in 5.0 W/m2
19:45 85.3 °F 39.7 °F 29.50 in WSW 6.9 mph 9.0 mph 20% 0.00 in 0.0 W/m2
19:50 84.9 °F 39.4 °F 29.51 in SSW 8.1 mph 18.0 mph 20% 0.00 in 0.0 W/m2
19:55 84.6 °F 40.3 °F 29.51 in West 10.1 mph 10.1 mph 21% 0.00 in 0.0 W/m2
20:01 83.8 °F 41.0 °F 29.51 in WSW 0.9 mph 5.0 mph 22% 0.00 in 0.0 W/m2
20:06 83.7 °F 40.8 °F 29.51 in Calm   1.0 mph 22% 0.00 in 0.0 W/m2
20:11 83.5 °F 39.4 °F 29.51 in SW 0.9 mph 6.0 mph 21% 0.00 in 0.0 W/m2
20:17 83.5 °F 39.4 °F 29.52 in SSW 0.9 mph 5.0 mph 21% 0.00 in 0.0 W/m2
20:22 83.5 °F 39.4 °F 29.52 in South 0.9 mph 4.0 mph 21% 0.00 in 0.0 W/m2
20:27 83.5 °F 39.4 °F 29.53 in Calm   4.0 mph 21% 0.00 in 0.0 W/m2
20:32 83.3 °F 40.5 °F 29.53 in SW 0.9 mph 6.0 mph 22% 0.00 in 0.0 W/m2
20:37 83.1 °F 40.3 °F 29.54 in Calm   2.0 mph 22% 0.00 in 0.0 W/m2
20:42 82.9 °F 40.1 °F 29.54 in WSW 2.9 mph 8.0 mph 22% 0.00 in 0.0 W/m2
20:47 82.6 °F 39.9 °F 29.54 in SW 0.9 mph 3.0 mph 22% 0.00 in 0.0 W/m2
20:53 82.2 °F 40.8 °F 29.55 in WSW 4.0 mph 7.0 mph 23% 0.00 in 0.0 W/m2
20:58 81.9 °F 40.5 °F 29.55 in WSW 4.9 mph 5.0 mph 23% 0.00 in 0.0 W/m2
21:04 81.7 °F 40.3 °F 29.55 in Calm   3.0 mph 23% 0.00 in 0.0 W/m2
21:09 81.3 °F 39.9 °F 29.55 in SW 2.9 mph 5.0 mph 23% 0.00 in 0.0 W/m2
21:14 81.1 °F 41.0 °F 29.56 in Calm   5.0 mph 24% 0.00 in 0.0 W/m2
21:19 81.0 °F 40.8 °F 29.56 in Calm   3.0 mph 24% 0.00 in 0.0 W/m2
21:24 80.6 °F 40.5 °F 29.56 in SW 0.9 mph 4.0 mph 24% 0.00 in 0.0 W/m2
21:29 80.4 °F 40.3 °F 29.56 in West 2.0 mph 7.0 mph 24% 0.00 in 0.0 W/m2
21:34 80.2 °F 41.2 °F 29.56 in WSW 4.0 mph 5.0 mph 25% 0.00 in 0.0 W/m2
21:39 80.1 °F 41.0 °F 29.57 in SSW 2.0 mph 3.0 mph 25% 0.00 in 0.0 W/m2
21:45 79.9 °F 41.0 °F 29.57 in Calm   2.0 mph 25% 0.00 in 0.0 W/m2
21:50 79.7 °F 40.8 °F 29.57 in SW 2.9 mph 7.0 mph 25% 0.00 in 0.0 W/m2
21:55 79.5 °F 40.6 °F 29.57 in SW 0.9 mph 4.0 mph 25% 0.00 in 0.0 W/m2
22:00 79.3 °F 40.5 °F 29.57 in WSW 2.9 mph 3.0 mph 25% 0.00 in 0.0 W/m2
22:05 79.0 °F 41.2 °F 29.57 in SW 2.0 mph 3.0 mph 26% 0.00 in 0.0 W/m2
22:10 79.0 °F 41.2 °F 29.57 in SW 0.9 mph 5.0 mph 26% 0.00 in 0.0 W/m2
22:15 78.6 °F 40.8 °F 29.56 in Calm   3.0 mph 26% 0.00 in 0.0 W/m2
22:20 78.6 °F 40.8 °F 29.57 in Calm   3.0 mph 26% 0.00 in 0.0 W/m2
22:26 78.6 °F 40.8 °F 29.57 in SW 0.9 mph 1.0 mph 26% 0.00 in 0.0 W/m2
22:31 78.6 °F 40.8 °F 29.57 in Calm     26% 0.00 in 0.0 W/m2
22:36 78.4 °F 40.6 °F 29.57 in Calm     26% 0.00 in 0.0 W/m2
22:41 78.3 °F 40.6 °F 29.57 in Calm   1.0 mph 26% 0.00 in 0.0 W/m2
22:46 78.1 °F 41.4 °F 29.57 in ESE 0.9 mph 2.0 mph 27% 0.00 in 0.0 W/m2
22:51 77.7 °F 41.0 °F 29.57 in ESE 0.9 mph 2.0 mph 27% 0.00 in 0.0 W/m2
22:56 77.5 °F 41.0 °F 29.57 in SE 0.9 mph 3.0 mph 27% 0.00 in 0.0 W/m2
23:01 77.4 °F 40.8 °F 29.57 in Calm   2.0 mph 27% 0.00 in 0.0 W/m2
23:06 77.2 °F 40.6 °F 29.57 in Calm   3.0 mph 27% 0.00 in 0.0 W/m2
23:11 76.8 °F 40.3 °F 29.57 in Calm   1.0 mph 27% 0.00 in 0.0 W/m2
23:17 76.6 °F 41.2 °F 29.57 in Calm     28% 0.00 in 0.0 W/m2
23:22 76.5 °F 41.0 °F 29.58 in Calm     28% 0.00 in 0.0 W/m2
23:27 76.3 °F 40.8 °F 29.58 in Calm   1.0 mph 28% 0.00 in 0.0 W/m2
23:33 76.1 °F 40.6 °F 29.58 in SE 0.9 mph 1.0 mph 28% 0.00 in 0.0 W/m2
23:38 75.9 °F 40.5 °F 29.58 in Calm   1.0 mph 28% 0.00 in 0.0 W/m2
23:43 75.7 °F 41.2 °F 29.58 in Calm     29% 0.00 in 0.0 W/m2
23:48 75.6 °F 41.0 °F 29.58 in Calm     29% 0.00 in 0.0 W/m2
23:53 75.4 °F 41.0 °F 29.58 in Calm     29% 0.00 in 0.0 W/m2
23:58 75.0 °F 40.6 °F 29.58 in Calm     29% 0.00 in 0.0 W/m2
Olympia, Windhoek, Namibia
Compliments of Weather Underground - 3.25 mb